Location: Peebles
(55.6412°N, 3.1714°W)
Time: 17:41:57
(UTC+01:00)

USA 238 DEB - Pass Details

Date: 20 January 2022
Orbit: 969 x 1243 km, 63.4° (Epoch: 04 May)

Event Time Altitude Azimuth Distance (km) Brightness Sun altitude
Rises 21:55:52 0° 290° (WNW) 3,818 7.3 -44.9°
Reaches altitude 10° 21:58:33 10° 296° (WNW) 2,902 6.5 -45.2°
Enters shadow 22:01:21 25° 310° (NW) 2,043 5.5 -45.5°
